TimeMST,TemperatureF,Dew PointF,Humidity,Sea Level PressureIn,VisibilityMPH,Wind Direction,Wind SpeedMPH,Gust SpeedMPH,PrecipitationIn,Events,Conditions,WindDirDegrees,DateUTC
12:53 AM,-6.0,-9.9,83,30.25,10.0,NNE,8.1,-,N/A,,Clear,30,2012-12-26 07:53:00
1:53 AM,-6.0,-9.9,83,30.22,10.0,NNE,8.1,-,N/A,,Clear,20,2012-12-26 08:53:00
2:53 AM,-6.0,-11.0,79,30.21,10.0,NNE,8.1,-,N/A,,Clear,20,2012-12-26 09:53:00
3:53 AM,-7.1,-11.0,83,30.19,10.0,NNE,6.9,-,N/A,,Clear,20,2012-12-26 10:53:00
4:53 AM,-7.1,-11.9,79,30.18,10.0,NNE,6.9,-,N/A,,Clear,30,2012-12-26 11:53:00
5:53 AM,-6.0,-11.0,79,30.17,10.0,NNE,8.1,-,N/A,,Clear,20,2012-12-26 12:53:00
6:53 AM,-6.0,-11.0,79,30.16,10.0,NE,6.9,-,N/A,,Partly Cloudy,40,2012-12-26 13:53:00
7:53 AM,-4.0,-9.0,79,30.17,10.0,NE,6.9,-,N/A,,Overcast,50,2012-12-26 14:53:00
8:14 AM,-4.0,-9.4,78,29.96,5.0,NE,8.1,-,N/A,,Haze,50,2012-12-26 15:14:00
8:53 AM,-4.0,-8.0,83,30.16,10.0,NNE,9.2,-,N/A,,Mostly Cloudy,20,2012-12-26 15:53:00
9:53 AM,-2.0,-7.1,79,30.16,10.0,NE,11.5,-,N/A,,Partly Cloudy,40,2012-12-26 16:53:00
10:53 AM,-0.0,-5.1,79,30.14,10.0,NNE,9.2,-,N/A,,Clear,30,2012-12-26 17:53:00
11:53 AM,-0.0,-5.1,79,30.10,10.0,NNE,11.5,-,N/A,,Scattered Clouds,20,2012-12-26 18:53:00
12:53 PM,3.0,-2.0,80,30.06,10.0,NNE,9.2,-,N/A,,Clear,30,2012-12-26 19:53:00
1:53 PM,3.9,-0.9,80,30.05,10.0,NNE,10.4,-,N/A,,Scattered Clouds,20,2012-12-26 20:53:00
2:53 PM,3.9,-0.9,80,30.05,10.0,NNE,11.5,-,N/A,,Partly Cloudy,30,2012-12-26 21:53:00
3:53 PM,3.9,-0.9,80,30.05,10.0,NE,12.7,-,N/A,,Clear,40,2012-12-26 22:53:00
4:53 PM,3.9,-0.0,84,30.05,10.0,NNE,12.7,-,N/A,,Overcast,30,2012-12-26 23:53:00
5:53 PM,5.0,-0.0,80,30.05,10.0,NE,15.0,-,N/A,,Partly Cloudy,40,2012-12-27 00:53:00
6:53 PM,3.9,-0.0,84,30.06,10.0,NE,12.7,-,N/A,,Overcast,40,2012-12-27 01:53:00
7:53 PM,3.0,-0.9,84,30.06,10.0,NE,10.4,-,N/A,,Scattered Clouds,40,2012-12-27 02:53:00
8:53 PM,3.9,-0.0,84,30.06,10.0,NE,9.2,-,N/A,,Partly Cloudy,40,2012-12-27 03:53:00
9:53 PM,5.0,1.0,84,30.04,10.0,NE,8.1,-,N/A,,Overcast,40,2012-12-27 04:53:00
10:53 PM,5.0,1.9,87,30.04,10.0,NE,8.1,-,N/A,,Overcast,50,2012-12-27 05:53:00
11:53 PM,6.1,1.9,83,30.05,5.0,NNE,9.2,-,0.00,,Overcast,20,2012-12-27 06:53:00